Home > Weather > Shiprock > Past weeks

Flag for U.S.A. Weather for the Past 2 Weeks in Shiprock, New Mexico, U.S.A.

Now
19 °F

Clear.


Feels Like: 12 °F
Forecast: 11 / 38 °F
Wind: 5 mph from North

Location: Four Corners Regional Airport

Current Time: Feb 6, 2016 at 1:02:45 AM

Latest Report: Feb 5, 2016 at 11:53 PM


Visibility: 10 mi

Pressure: 30.60 "Hg (25.26 "Hg at 1492m altitude)

Humidity: 71%

Dew point: 11 °F

Location of ShiprockLocation

Historic Weather in Shiprock — Graph

°F

Shiprock Temperature Yesterday

Maximum temperature yesterday: 37 °F (at 2:53 PM)
Minimum temperature yesterday: 7 °F (at 6:53 AM)
Average temperature yesterday: 23 °F

High & Low Weather Summary for the Past Weeks

 TemperatureHumidityPressure
High140 °F (Jan 22, 6:08 AM)96% (Jan 24, 3:53 PM)30.62 "Hg (Jan 24, 3:53 PM)
Low4 °F (Feb 4, 5:53 AM)4% (Jan 22, 6:08 AM)29.36 "Hg (Feb 1, 3:53 AM)
Average30 °F63%30.15 "Hg
* Reported Jan 21 11:53 PM — Feb 5 11:53 PM, Shiprock, Weather by CustomWeather, © 2016

Note: Actual official high and low records may vary slightly from our data, if they occured in-between our weather recording intervals... More about our weather records

Advertising

Shiprock Weather History for the Previous 24 Hours

 ConditionsComfort  
Time TempWeatherWind HumidityBarometerVisibility
11:53 PM
Fri, Feb 5
19 °FClear.5 mph71%30.60 "Hg10 mi
10:53 PM21 °FClear.N/A74%30.60 "Hg10 mi
9:53 PM24 °FClear.5 mph65%30.59 "Hg10 mi
8:53 PM26 °FClear.9 mph63%30.58 "Hg10 mi
7:53 PM28 °FClear.17 mph58%30.58 "Hg10 mi
6:53 PM29 °FClear.14 mph51%30.58 "Hg10 mi
5:53 PM31 °FClear.15 mph45%30.55 "Hg10 mi
4:53 PM36 °FSunny.15 mph38%30.51 "Hg10 mi
3:53 PM37 °FSunny.17 mph39%30.49 "Hg10 mi
2:53 PM37 °FSunny.14 mph41%30.48 "Hg10 mi
1:53 PM36 °FSunny.14 mph40%30.48 "Hg10 mi
12:53 PM34 °FSunny.7 mph46%30.52 "Hg10 mi
11:53 AM28 °FSunny.3 mph56%30.58 "Hg10 mi
10:53 AM23 °FSunny.No wind68%30.61 "Hg10 mi
9:53 AM19 °FSunny.6 mph74%30.60 "Hg10 mi
8:53 AM16 °FSunny.5 mph74%30.60 "Hg10 mi
7:53 AM11 °FSunny.No wind77%30.60 "Hg10 mi
6:53 AM7 °FClear.No wind79%30.58 "Hg10 mi
5:53 AM9 °FClear.No wind84%30.56 "Hg10 mi
4:53 AM10 °FClear.3 mph88%30.51 "Hg10 mi
3:53 AM15 °FClear.3 mph87%30.46 "Hg10 mi
2:53 AM18 °FClear.12 mph80%30.43 "Hg10 mi
1:53 AM18 °FClear.10 mph84%30.44 "Hg10 mi
Weather by CustomWeather, © 2016

See weather overviewHow to use our weather pages